OSIRIS-3U (43027 NORAD) Tracking and Keplerian Element Data

This shows tracking and keplerian element data for the satellite.

Feedback or suggestion? Click here.




ElementValue
Catalog43027
NameOSIRIS-3U
Epoch Orbit5675
Epoch Day323.14474545
Epoch Year2018
RAAN300.3777
Inclination51.636
Eccentricity0.0005208
Argument of Perigee56.2498
Mean Anonmoly303.8998
Mean Motion15.76611258
Decay Rate0.00072748
L11 43027U 98067NL 18323.14474545 .00072748 00000-0 44594-3 0 9994
L22 43027 51.6360 300.3777 0005208 56.2498 303.8998 15.76611258 56750

Live tracking and technical data element details for OSIRIS-3U (NORAD 43027). OSIRIS-3U can be tracked NOW for your location showing map with azimuth and elevation plus other details from your city location.

Track the satellite on the map from your city or location and see movement details for azimuth, elevation, latitude, longitude, range, height, and movement on the map or in text.







IsCatalogInMostPopularTable: catalog: 43027, numindb: 142
Update: records affected: 1



GetName: 43027 OSIRIS-3U

Hit Count: updated at: Mon, 19 Nov 2018 23:55:35 GMT